Latest Coastal Weather Observations for Sydney Harbour

IDN60701

Issued at 7:11 am EST Wednesday 22 April 2015 (issued every 10 minutes, with the page automatically refreshed every 10 minutes)

About coastal observations | Map of coastal stations | Coastal observations for NSW | Marine services | Other Formats
Station Details ID: 066196 Name: WEDDING CAKE WEST Lat: -33.84 Lon: 151.26 Height: 6.0 m
Data from the previous 72 hours. | See also: Recent months for locations in New South Wales
Date/Time
EST
Temp

°C
Wind Pressure Rain
since 9am
mm
Weather Cloud Vis
km
Sea
Height
m
Swell
Dir
 
Speed
knots
Gust
knots
hPa Trend Height
m
Period
s
Dir
22/07:00am 17.9 S 17 20 - - - - - - - - - -
22/06:30am 17.9 S 15 29 - - - - - - - - - -
22/06:18am 17.7 S 15 25 - - - - - - - - - -
22/06:00am 18.2 S 21 26 - - - - - - - - - -
22/05:30am 18.5 S 25 32 - - - - - - - - - -
22/05:09am 18.7 S 25 37 - - - - - - - - - -
22/05:00am 18.7 S 24 32 - - - - - - - - - -
22/04:30am 18.6 S 26 35 - - - - - - - - - -
22/04:21am 18.7 S 27 37 - - - - - - - - - -
22/04:09am 18.7 S 20 35 - - - - - - - - - -
22/04:03am 17.5 S 24 37 - - - - - - - - - -
22/04:01am 17.1 S 25 37 - - - - - - - - - -
22/04:00am 16.9 S 26 37 - - - - - - - - - -
22/03:37am 19.0 S 20 30 - - - - - - - - - -
22/03:30am 19.0 S 22 29 - - - - - - - - - -
22/03:07am 18.6 S 25 35 - - - - - - - - - -
22/03:00am 18.8 S 28 35 - - - - - - - - - -
22/02:30am 18.7 S 26 35 - - - - - - - - - -
22/02:23am 18.7 S 25 35 - - - - - - - - - -
22/02:00am 18.5 S 26 34 - - - - - - - - - -
22/01:33am 18.4 S 22 32 - - - - - - - - - -
22/01:30am 18.3 S 23 32 - - - - - - - - - -
22/01:00am 18.0 S 27 36 - - - - - - - - - -
22/12:30am 16.8 SSE 27 39 - - - - - - - - - -
22/12:00am 16.7 S 31 43 - - - - - - - - - -
 
Date/Time
EST
Temp

°C
Wind Pressure Rain
since 9am
mm
Weather Cloud Vis
km
Sea
Height
m
Swell
Dir
 
Speed
knots
Gust
knots
hPa Trend Height
m
Period
s
Dir
21/11:30pm 16.9 S 27 38 - - - - - - - - - -
21/11:00pm 16.1 SSW 27 40 - - - - - - - - - -
21/10:42pm 15.7 SSW 28 40 - - - - - - - - - -
21/10:30pm 15.8 SSW 31 37 - - - - - - - - - -
21/10:00pm 15.4 SSW 30 43 - - - - - - - - - -
21/09:30pm 14.9 SSW 29 41 - - - - - - - - - -
21/09:21pm 15.1 SSW 31 41 - - - - - - - - - -
21/09:00pm 15.7 SSW 30 39 - - - - - - - - - -
21/08:30pm 15.8 SSW 32 44 - - - - - - - - - -
21/08:00pm 15.4 SSW 33 43 - - - - - - - - - -
21/07:30pm 16.0 SSW 33 45 - - - - - - - - - -
21/07:00pm 14.6 S 33 43 - - - - - - - - - -
21/06:34pm 16.0 SSW 34 44 - - - - - - - - - -
21/06:30pm 15.9 SSW 36 44 - - - - - - - - - -
21/06:00pm 14.2 SSW 36 46 - - - - - - - - - -
21/05:32pm 14.2 SSW 34 44 - - - - - - - - - -
21/05:30pm 14.2 SSW 35 44 - - - - - - - - - -
21/05:05pm 14.3 SSW 36 47 - - - - - - - - - -
21/05:00pm 13.9 SSW 34 43 - - - - - - - - - -
21/04:30pm 13.9 S 32 42 - - - - - - - - - -
21/04:00pm 13.8 SSW 31 41 - - - - - - - - - -
21/03:59pm 14.3 SSW 30 41 - - - - - - - - - -
21/03:57pm 15.0 SSW 31 50 - - - - - - - - - -
21/03:30pm 14.2 S 35 48 - - - - - - - - - -
21/03:00pm 14.3 S 35 45 - - - - - - - - - -
21/02:45pm 14.6 S 34 46 - - - - - - - - - -
21/02:43pm 14.4 S 33 46 - - - - - - - - - -
21/02:30pm 15.0 S 28 40 - - - - - - - - - -
21/02:00pm 15.1 S 33 44 - - - - - - - - - -
21/01:30pm 16.0 S 34 44 - - - - - - - - - -
21/01:00pm 16.0 S 33 46 - - - - - - - - - -
21/12:30pm 15.9 S 30 42 - - - - - - - - - -
21/12:00pm 14.7 SSE 31 44 - - - - - - - - - -
21/11:30am 15.8 SSE 29 42 - - - - - - - - - -
21/11:00am 17.5 S 30 45 - - - - - - - - - -
21/10:30am 16.7 S 33 44 - - - - - - - - - -
21/10:00am 16.8 SSE 31 42 - - - - - - - - - -
21/09:30am 16.3 SSE 31 43 - - - - - - - - - -
21/09:00am 16.7 S 32 45 - - - - - - - - - -
21/08:30am 16.7 S 33 46 - - - - - - - - - -
21/08:00am 16.2 SSE 32 45 - - - - - - - - - -
21/07:30am 16.3 S 34 45 - - - - - - - - - -
21/07:00am 16.1 S 30 48 - - - - - - - - - -
21/06:30am 16.7 S 34 46 - - - - - - - - - -
21/06:06am 16.3 SSE 32 42 - - - - - - - - - -
21/06:00am 16.2 S 33 41 - - - - - - - - - -
21/05:30am 15.5 S 32 43 - - - - - - - - - -
21/05:00am 16.9 S 33 45 - - - - - - - - - -
21/04:30am 16.5 SSE 30 42 - - - - - - - - - -
21/04:06am 16.6 SSE 33 45 - - - - - - - - - -
21/04:00am 16.7 SSE 32 40 - - - - - - - - - -
21/03:30am 16.9 S 31 44 - - - - - - - - - -
21/03:00am 16.6 SSE 31 42 - - - - - - - - - -
21/02:30am 16.8 SSE 30 42 - - - - - - - - - -
21/02:00am 16.7 SSE 29 42 - - - - - - - - - -
21/01:30am 16.0 SSE 32 43 - - - - - - - - - -
21/01:00am 16.9 SSE 34 48 - - - - - - - - - -
21/12:30am 16.9 SSE 31 47 - - - - - - - - - -
21/12:00am 16.7 SSE 30 42 - - - - - - - - - -
 
Date/Time
EST
Temp

°C
Wind Pressure Rain
since 9am
mm
Weather Cloud Vis
km
Sea
Height
m
Swell
Dir
 
Speed
knots
Gust
knots
hPa Trend Height
m
Period
s
Dir
20/11:30pm 17.0 S 30 41 - - - - - - - - - -
20/11:00pm 15.6 S 27 38 - - - - - - - - - -
20/10:30pm 15.4 SSE 29 39 - - - - - - - - - -
20/10:00pm 16.7 S 29 42 - - - - - - - - - -
20/09:53pm 16.9 S 25 38 - - - - - - - - - -
20/09:30pm 15.9 SSE 29 37 - - - - - - - - - -
20/09:00pm 16.8 SSE 31 42 - - - - - - - - - -
20/08:30pm 16.6 S 31 41 - - - - - - - - - -
20/08:00pm 17.0 SSE 30 43 - - - - - - - - - -
20/07:30pm 17.3 SSE 31 42 - - - - - - - - - -
20/07:00pm 17.5 SSE 27 42 - - - - - - - - - -
20/06:30pm 17.6 SSE 25 40 - - - - - - - - - -
20/06:00pm 17.5 SSE 29 39 - - - - - - - - - -
20/05:30pm 17.8 SSE 32 42 - - - - - - - - - -
20/05:07pm 18.0 SSE 25 35 - - - - - - - - - -
20/05:00pm 18.1 SSE 25 33 - - - - - - - - - -
20/04:32pm 17.8 SSE 25 45 - - - - - - - - - -
20/04:30pm 17.7 SSE 24 33 - - - - - - - - - -
20/04:00pm 17.6 SSE 28 39 - - - - - - - - - -
20/03:30pm 17.6 SSE 24 36 - - - - - - - - - -
20/03:23pm 17.4 SSE 26 36 - - - - - - - - - -
20/03:00pm 17.7 SSE 27 36 - - - - - - - - - -
20/02:30pm 17.6 SSE 25 41 - - - - - - - - - -
20/02:08pm 17.6 SSE 26 36 - - - - - - - - - -
20/02:00pm 17.7 SSE 26 34 - - - - - - - - - -
20/01:30pm 17.3 SSE 22 28 - - - - - - - - - -
20/01:00pm 16.7 S 22 30 - - - - - - - - - -
20/12:37pm 16.7 S 23 33 - - - - - - - - - -
20/12:30pm 17.2 S 25 33 - - - - - - - - - -
20/12:00pm 17.7 S 23 28 - - - - - - - - - -
20/11:38am 16.2 S 21 35 - - - - - - - - - -
20/11:30am 17.1 S 19 27 - - - - - - - - - -
20/11:00am 16.5 SSE 20 35 - - - - - - - - - -
20/10:50am 15.9 S 21 39 - - - - - - - - - -
20/10:46am 16.3 S 16 28 - - - - - - - - - -
20/10:32am 15.9 S 21 29 - - - - - - - - - -
20/10:30am 16.2 SSW 22 29 - - - - - - - - - -
20/10:00am 16.7 SSW 17 21 - - - - - - - - - -
20/09:30am 16.4 S 15 23 - - - - - - - - - -
20/09:00am 16.4 S 18 22 - - - - - - - - - -
20/08:30am 16.4 SSW 20 27 - - - - - - - - - -
20/08:00am 15.6 SSW 19 27 - - - - - - - - - -
20/07:30am 15.2 SSW 21 28 - - - - - - - - - -
20/07:00am 14.7 SW 19 23 - - - - - - - - - -
20/06:30am 14.6 SSW 18 22 - - - - - - - - - -
20/06:00am 15.1 SW 21 26 - - - - - - - - - -
20/05:30am 14.9 SW 20 23 - - - - - - - - - -
20/05:00am 14.9 SW 22 27 - - - - - - - - - -
20/04:30am 14.5 SW 21 28 - - - - - - - - - -
20/04:09am 15.0 SSW 22 32 - - - - - - - - - -
20/04:00am 14.4 SW 21 27 - - - - - - - - - -
20/03:30am 15.1 SW 22 28 - - - - - - - - - -
20/03:00am 15.1 SW 24 31 - - - - - - - - - -
20/02:30am 15.0 SSW 24 31 - - - - - - - - - -
20/02:00am 15.0 SW 22 29 - - - - - - - - - -
20/01:30am 14.8 SW 22 29 - - - - - - - - - -
20/01:00am 14.9 SW 22 27 - - - - - - - - - -
20/12:30am 15.7 SSW 19 25 - - - - - - - - - -
20/12:00am 15.3 SW 20 28 - - - - - - - - - -
 
Date/Time
EST
Temp

°C
Wind Pressure Rain
since 9am
mm
Weather Cloud Vis
km
Sea
Height
m
Swell
Dir
 
Speed
knots
Gust
knots
hPa Trend Height
m
Period
s
Dir
19/11:30pm 15.4 SW 22 30 - - - - - - - - - -
19/11:00pm 15.7 SW 23 28 - - - - - - - - - -
19/10:33pm 15.9 SSW 22 33 - - - - - - - - - -
19/10:30pm 16.1 SSW 22 27 - - - - - - - - - -
19/10:00pm 16.1 SSW 22 27 - - - - - - - - - -
19/09:30pm 16.1 SW 16 23 - - - - - - - - - -
19/09:00pm 16.2 SSW 20 25 - - - - - - - - - -
19/08:30pm 16.1 SSW 21 31 - - - - - - - - - -
19/08:00pm 16.1 SSW 24 29 - - - - - - - - - -
19/07:30pm 16.0 SSW 25 31 - - - - - - - - - -
19/07:00pm 16.2 S 25 31 - - - - - - - - - -
19/06:30pm 16.6 S 25 30 - - - - - - - - - -
19/06:00pm 17.7 S 26 34 - - - - - - - - - -
19/05:50pm 17.7 S 24 34 - - - - - - - - - -
19/05:30pm 18.1 S 25 32 - - - - - - - - - -
19/05:00pm 18.4 S 24 31 - - - - - - - - - -
19/04:30pm 18.3 S 20 27 - - - - - - - - - -
19/04:25pm 18.0 SSE 18 28 - - - - - - - - - -
19/04:00pm 17.7 S 22 30 - - - - - - - - - -
19/03:46pm 17.4 S 24 34 - - - - - - - - - -
19/03:30pm 17.8 S 22 27 - - - - - - - - - -
19/03:00pm 18.0 S 21 29 - - - - - - - - - -
19/02:30pm 18.1 S 23 31 - - - - - - - - - -
19/02:00pm 18.4 S 23 29 - - - - - - - - - -
19/01:30pm 18.6 SSW 23 28 - - - - - - - - - -
19/01:00pm 19.1 SSW 20 25 - - - - - - - - - -
19/12:30pm 19.2 S 22 26 - - - - - - - - - -
19/12:00pm 19.7 S 22 26 - - - - - - - - - -
19/11:48am 20.2 S 17 23 - - - - - - - - - -
19/11:30am 20.7 SW 9 13 - - - - - - - - - -
19/11:00am 20.4 SW 11 14 - - - - - - - - - -
19/10:30am 20.1 WSW 12 14 - - - - - - - - - -
19/10:00am 19.6 W 13 18 - - - - - - - - - -
19/09:30am 19.6 WSW 14 18 - - - - - - - - - -
19/09:00am 19.5 WSW 14 19 - - - - - - - - - -
19/08:30am 19.3 WSW 12 15 - - - - - - - - - -
19/08:00am 19.1 WSW 11 15 - - - - - - - - - -
19/07:30am 19.2 W 9 13 - - - - - - - - - -

Other Formats:

Comma delimited format used in spreadsheet applications
http://www.bom.gov.au/fwo/IDN60701/IDN60701.95766.axf

JavaScript Object Notation format (JSON) in row-major order
http://www.bom.gov.au/fwo/IDN60701/IDN60701.95766.json